Погода в Высоком

Россия / Ханты-Мансийский автономный округ - Югра     61°10′01″N   75°57′46″E
темп.,
°C
ветер,
м/с
пор.,
м/с
влажн.,
%
обл.,
%
осадки,
мм/ч
давл.,
гПа
погр.,
м
15 мая, сб
сб1523:00+15юз237092 0.4 101039
02:00+12с3686100 0.1 1012143
05:00+10ссв5107498 0.1 1014445
08:00+7ссв3684100 2.6 1016410
11:00+8св3473100 5.4 1017567
14:00+8св3369100 0.1 1018477
17:00+7всв247999 0.1 1018233
20:00+7всв2578100 0.0 1017203
16 мая, вс
вс1623:00+7в4107297 0.0 1016416
02:00+6всв4775100 0.0 1015263
05:00+5всв4974100 0.0 1015355
08:00+5всв4875100 0.0 1015402
11:00+7в456797 0.0 1016545
14:00+8всв2265100 0.0 1017607
17:00+10всв226230 0.0 1018807
20:00+8в2473100 0.0 1018249
17 мая, пн
пн1723:00+7вюв2579100 0.0 1017266
02:00+6юв258197 0.0 1016264
05:00+6юв2684100 0.2 1015261
08:00+6вюв3793100 2.9 1013252
11:00+8в3487100 3.0 1013372
14:00+9в348299 0.0 1013436
17:00+8всв3587100 0.4 1012326
20:00+7в369141 0.0 1012295
18 мая, вт
вт1823:00+5в3897100 0.0 1012247
02:00+6в2595100 0.0 1011212
05:00+6всв2595100 0.4 1011211
08:00+6в2595100 1.1 1011232
11:00+7всв2491100 1.8 1012245
14:00+7св2489100 0.0 1013304
17:00+7ссв2590100 0.0 1014326
20:00+7с258822 0.0 1014182
19 мая, ср
ср1923:00+6ссз24845 0.0 101559
02:00+5ссз41175100 0.0 1016259
05:00+3с5128252 0.0 1018541
08:00+4с61075100 0.0 1020886
11:00+7ссв685212 0.0 10211342
14:00+10с6835100 0.0 10211853
17:00+9с573291 0.0 10221744
20:00+6с3741100 0.0 1023358